[[{"header":{"parameterUnit":"m.s-1","parameterCategory":1,"la1":30.2991,"la2":30.254,"lo1":-89.0895,"lo2":-89.0444,"dy":0.0017,"dx":0.0017,"nx":28,"ny":28,"refTime":"2025-01-22T09:00:00:Z","depth":0,"parameterNumber":2,"parameterNumberName":"U-component_of_WINDS"},"data":[0,0,0,0,0,0,0,0,0,0,0,0,0,0,0,0,0,0,0,0,0,0,0,0,0,0,0,0,0,0,0,0,0,0,0,0,0,0,0,0,0,0,0,0,0,0,0,0,0,0,0,0,0,0,0,0,0,0,0.6106,0.6105,0,0.6051,0.6051,0.605,0.6049,0.6049,0.605,0.6051,0.5992,0.599,0.5988,0,0,0,0,0,0,0,0,0,0,0,0,0,0.6209,0.6207,0.6106,0.6105,0.6105,0.6051,0.605,0.605,0.6049,0.6049,0.605,0.6051,0.5993,0.5991,0.5988,0,0,0,0,0,0,0,0,0,0,0,0,0,0.616,0.6206,0.6106,0.6098,0.6096,0.6051,0.605,0.605,0.6048,0.6049,0.605,0.6051,0.5994,0.5991,0.5988,0.5947,0,0,0.5978,0.5976,0,0,0,0,0,0,0,0,0.6163,0.6156,0.61,0.6098,0.6097,0.6058,0.6065,0.6015,0.6048,0.6067,0.6051,0.6052,0.6013,0.6008,0.5996,0.5944,0.5942,0.5977,0.5975,0.5974,0.5973,0,0,0,0,0,0,0,0.6166,0.6159,0.6084,0.6099,0.6097,0.6096,0.6091,0.6056,0.6035,0.6065,0.6065,0.6058,0.6013,0.5999,0.5994,0.5941,0.5977,0.5974,0.5972,0.5971,0.5853,0.5852,0,0,0,0,0,0,0.6171,0.6161,0.6086,0.6083,0.6133,0.6094,0.6087,0.6069,0.6035,0.6031,0.6058,0.6059,0.6004,0.5998,0.5992,0.5942,0.5974,0.5971,0.5969,0.5855,0.5853,0.5852,0,0,0,0,0,0,0.6174,0.6165,0.6088,0.6122,0.6112,0.6091,0.6071,0.6068,0.6054,0.603,0.6026,0.6048,0.6005,0.5997,0.5958,0.594,0.5969,0.5966,0.5856,0.5854,0.5852,0.5842,0,0,0,0,0,0,0.6177,0.6165,0.615,0.6122,0.611,0.6055,0.607,0.6066,0.6049,0.6049,0.6019,0.6015,0.6005,0.5963,0.5955,0.5936,0.5964,0.5857,0.5855,0.5853,0.5844,0.584,0.5837,0,0,0,0,0,0.618,0.6148,0.6149,0.614,0.609,0.6054,0.6048,0.6037,0.6047,0.6031,0.6016,0.6016,0.5944,0.5959,0.595,0.593,0.5858,0.5856,0.5853,0.5845,0.5841,0.5837,0,0,0,0,0,0,0.6174,0.6144,0.6145,0.6103,0.6081,0.6054,0.6033,0.6033,0.6007,0.6009,0.5996,0.599,0.5951,0.5937,0.5955,0.5889,0.5902,0.5898,0.5899,0.5895,0.5892,0.5895,0.5961,0,0,0,0,0,0.6168,0.6141,0.6117,0.6082,0.6071,0.6054,0.6038,0.6032,0.6009,0.5999,0.5981,0.5958,0.593,0.5912,0.5885,0.5842,0.5836,0.5824,0.5821,0.5818,0.5814,0.579,0.5785,0.5843,0.5843,0.5843,0,0,0.6154,0.6135,0.6119,0.608,0.6063,0.6035,0.6046,0.6017,0.5996,0.5995,0.5957,0.5943,0.5917,0.5876,0.5857,0.5863,0.5797,0.5815,0.5813,0.581,0.5787,0.5782,0.5777,0.5842,0.5842,0.5842,0,0,0.6115,0.6099,0.6068,0.6051,0.6024,0.6014,0.6007,0.598,0.5971,0.5933,0.5932,0.5907,0.586,0.5841,0.5825,0.5782,0.5781,0.5774,0.5755,0.5732,0.5728,0.5724,0.5708,0.5702,0.577,0.577,0.577,0,0.6102,0.6061,0.6052,0.6023,0.6006,0.6005,0.5974,0.5957,0.5923,0.5912,0.5919,0.586,0.5842,0.5797,0.5787,0.5775,0.5766,0.5776,0.5729,0.5725,0.5721,0.5706,0.57,0.5769,0.5769,0.5769,0.5769,0,0.6045,0.6017,0.5995,0.5963,0.5944,0.5914,0.5901,0.5883,0.5879,0.5868,0.583,0.5809,0.5778,0.5768,0.5763,0.5722,0.5727,0.5732,0.5745,0.5715,0.57,0.5694,0.5768,0.5768,0.5768,0.5769,0,0,0.5998,0.5964,0.5956,0.5942,0.5914,0.5892,0.5862,0.5833,0.5817,0.5795,0.5769,0.573,0.5735,0.5717,0.5711,0.5692,0.5659,0.57,0.5699,0.5692,0.5612,0.5608,0.5601,0.5659,0.5658,0.5657,0.5614,0,0.5956,0.5903,0.5895,0.5849,0.5822,0.5822,0.5797,0.5777,0.5766,0.5742,0.573,0.5702,0.5711,0.57,0.5681,0.5667,0.5642,0.567,0.5635,0.5633,0.564,0.5593,0.5588,0.5548,0.5609,0.5608,0.5607,0,0.5898,0.5875,0.5826,0.5803,0.5792,0.5769,0.5742,0.5719,0.5697,0.569,0.5672,0.5669,0.5638,0.5654,0.5611,0.563,0.5616,0.5607,0.5605,0.56,0.5617,0.5586,0.5535,0.5529,0.5598,0.5599,0.5599,0,0.5868,0.5825,0.579,0.5778,0.5751,0.5734,0.5722,0.5701,0.5684,0.5661,0.565,0.5623,0.5608,0.5588,0.5578,0.559,0.5536,0.5551,0.5529,0.5529,0.5516,0.5517,0.5461,0.5509,0.5509,0.5509,0.5509,0,0.5821,0.5791,0.5777,0.5755,0.5721,0.5714,0.568,0.5669,0.565,0.5626,0.5625,0.5603,0.5591,0.5567,0.5559,0.5525,0.5519,0.5512,0.551,0.5512,0.5512,0.5501,0.5503,0.5508,0.5508,0.5508,0.5509,0,0.5781,0.577,0.5732,0.571,0.5703,0.568,0.566,0.5639,0.563,0.5599,0.5592,0.5576,0.5548,0.5537,0.5502,0.5497,0.5457,0.5458,0.5465,0.5464,0.5443,0.5445,0.5377,0.5367,0.5422,0.5422,0.5421,0,0.575,0.5727,0.5703,0.5687,0.5674,0.5649,0.5633,0.5625,0.5607,0.5581,0.5564,0.5536,0.5513,0.5468,0.5453,0.5427,0.5427,0.5405,0.5422,0.5425,0.5425,0.5426,0.5424,0.5401,0.54,0.54,0.54,0,0.5697,0.5694,0.567,0.5645,0.5626,0.5605,0.5585,0.5573,0.5562,0.5543,0.5514,0.5497,0.5462,0.5434,0.5408,0.5395,0.5395,0.5395,0.5388,0.5388,0.5393,0.539,0.5455,0.5396,0.5396,0.5396,0.5396,0.5397,0.566,0.564,0.562,0.5594,0.5579,0.5561,0.554,0.5529,0.5505,0.5477,0.5474,0.5444,0.5423,0.5388,0.5374,0.535,0.5356,0.5346,0.5344,0.5341,0.534,0.5398,0.5346,0.5346,0.5346,0.5346,0.5346,0,0.5606,0.5594,0.5571,0.5544,0.5523,0.5527,0.5506,0.5489,0.5462,0.5444,0.5422,0.539,0.5364,0.5348,0.5322,0.5306,0.5305,0.5299,0.5299,0.5296,0.5336,0.5344,0.53,0.53,0.53,0.53,0.53,0.53,0.5576,0.5542,0.5536,0.5495,0.5483,0.5454,0.5441,0.5425,0.541,0.5375,0.5353,0.5344,0.5327,0.5299,0.5276,0.5272,0.5262,0.5255,0.5251,0.5289,0.5293,0.5298,0.5305,0.5253,0.5253,0.5213,0.5213,0.5212]},{"header":{"parameterUnit":"m.s-1","parameterCategory":1,"la1":30.2991,"la2":30.254,"lo1":-89.0895,"lo2":-89.0444,"dy":0.0017,"dx":0.0017,"nx":28,"ny":28,"refTime":"2025-01-22T09:00:00:Z","depth":0,"parameterNumber":3,"parameterNumberName":"V-component_of_WINDS"},"data":[0,0,0,0,0,0,0,0,0,0,0,0,0,0,0,0,0,0,0,0,0,0,0,0,0,0,0,0,0,0,0,0,0,0,0,0,0,0,0,0,0,0,0,0,0,0,0,0,0,0,0,0,0,0,0,0,0,0,-4.8255,-4.8257,0,-4.8432,-4.8434,-4.8436,-4.8361,-4.8357,-4.8353,-4.8349,-4.8525,-4.8533,-4.8542,0,0,0,0,0,0,0,0,0,0,0,0,0,-4.7847,-4.7855,-4.8255,-4.8257,-4.826,-4.8432,-4.8435,-4.8437,-4.8362,-4.8357,-4.8352,-4.8347,-4.8522,-4.8532,-4.8543,0,0,0,0,0,0,0,0,0,0,0,0,0,-4.8024,-4.7857,-4.8255,-4.8243,-4.8244,-4.8432,-4.8435,-4.8438,-4.8363,-4.8357,-4.835,-4.8344,-4.8519,-4.8531,-4.8544,-4.8752,0,0,-4.8584,-4.8589,0,0,0,0,0,0,0,0,-4.8014,-4.8039,-4.8243,-4.8244,-4.8245,-4.8368,-4.8355,-4.8543,-4.8365,-4.8318,-4.8348,-4.8341,-4.8478,-4.8493,-4.8541,-4.876,-4.8768,-4.8585,-4.8593,-4.8598,-4.8602,0,0,0,0,0,0,0,-4.8002,-4.8031,-4.8325,-4.8246,-4.8247,-4.8227,-4.8245,-4.839,-4.8431,-4.8321,-4.8316,-4.8338,-4.8477,-4.8528,-4.8544,-4.8771,-4.8584,-4.8596,-4.8604,-4.8609,-4.917,-4.9176,0,0,0,0,0,0,-4.799,-4.8021,-4.8319,-4.833,-4.8112,-4.824,-4.826,-4.8335,-4.8429,-4.8438,-4.8344,-4.8334,-4.8509,-4.8529,-4.855,-4.8801,-4.8598,-4.861,-4.8618,-4.9163,-4.9171,-4.9179,0,0,0,0,0,0,-4.7982,-4.8017,-4.8312,-4.8175,-4.8211,-4.8254,-4.8339,-4.8342,-4.8393,-4.8446,-4.8453,-4.8389,-4.8505,-4.8532,-4.8703,-4.8806,-4.8616,-4.8628,-4.9154,-4.9165,-4.9175,-4.9303,0,0,0,0,0,0,-4.797,-4.8015,-4.8096,-4.8177,-4.8218,-4.8464,-4.8345,-4.835,-4.8417,-4.8406,-4.8491,-4.8498,-4.8502,-4.8684,-4.8716,-4.882,-4.8638,-4.9145,-4.9159,-4.9172,-4.929,-4.9317,-4.934,0,0,0,0,0,-4.7956,-4.8123,-4.81,-4.8137,-4.8321,-4.847,-4.8494,-4.8496,-4.8425,-4.8506,-4.854,-4.8496,-4.8789,-4.8702,-4.8737,-4.8847,-4.9139,-4.9155,-4.9171,-4.9279,-4.9312,-4.9339,0,0,0,0,0,0,-4.8051,-4.8134,-4.8109,-4.8308,-4.8383,-4.8457,-4.856,-4.8531,-4.8626,-4.8612,-4.8608,-4.8628,-4.8805,-4.8843,-4.8745,-4.9053,-4.8953,-4.8977,-4.9023,-4.9054,-4.9079,-4.9067,-4.8649,0,0,0,0,0,-4.8096,-4.8212,-4.8277,-4.8447,-4.8486,-4.8517,-4.8582,-4.8577,-4.8654,-4.8685,-4.8731,-4.8806,-4.8914,-4.8986,-4.9089,-4.9294,-4.9311,-4.9387,-4.9412,-4.9432,-4.9453,-4.9564,-4.9599,-4.9231,-4.9231,-4.9231,0,0,-4.8189,-4.8248,-4.8321,-4.8468,-4.8525,-4.8644,-4.8544,-4.8674,-4.8762,-4.8704,-4.8869,-4.8906,-4.8988,-4.9178,-4.9263,-4.9214,-4.9558,-4.9452,-4.9468,-4.9478,-4.9584,-4.9619,-4.965,-4.9242,-4.924,-4.9239,0,0,-4.8419,-4.8476,-4.8624,-4.8683,-4.8772,-4.8792,-4.8827,-4.8906,-4.8929,-4.9095,-4.9054,-4.9157,-4.9345,-4.9406,-4.9461,-4.9715,-4.9677,-4.9748,-4.9879,-4.9987,-5.0016,-5.0042,-5.0133,-5.0165,-4.9768,-4.9769,-4.9769,0,-4.8523,-4.8703,-4.8703,-4.8837,-4.8902,-4.8857,-4.9006,-4.9063,-4.918,-4.9226,-4.9169,-4.9404,-4.9456,-4.966,-4.9722,-4.9768,-4.9807,-4.9739,-5.0012,-5.0038,-5.0062,-5.0148,-5.0183,-4.9777,-4.9776,-4.9775,-4.9774,0,-4.8826,-4.8951,-4.906,-4.9177,-4.9254,-4.9395,-4.9414,-4.9492,-4.948,-4.9505,-4.9674,-4.9735,-4.985,-4.9898,-4.9887,-5.01,-5.0067,-5.0012,-4.9911,-5.0105,-5.0186,-5.0219,-4.9788,-4.9785,-4.9783,-4.9781,0,0,-4.9123,-4.9238,-4.9278,-4.933,-4.9425,-4.9521,-4.9659,-4.9773,-4.984,-4.9922,-5.0037,-5.0197,-5.0147,-5.021,-5.0205,-5.03,-5.0497,-5.0233,-5.0235,-5.0281,-5.0736,-5.0778,-5.0816,-5.0473,-5.0479,-5.0484,-5.0729,0,-4.9361,-4.9606,-4.961,-4.9834,-4.9949,-4.9907,-5.0027,-5.0097,-5.0124,-5.0224,-5.0252,-5.0366,-5.0291,-5.0329,-5.0421,-5.0454,-5.0589,-5.0436,-5.0579,-5.0584,-5.0561,-5.0858,-5.0903,-5.1131,-5.0761,-5.0766,-5.077,0,-4.9672,-4.9767,-5.0003,-5.0081,-5.013,-5.0238,-5.0343,-5.044,-5.0518,-5.053,-5.0601,-5.0582,-5.0721,-5.0615,-5.0806,-5.0702,-5.076,-5.0785,-5.0794,-5.0808,-5.069,-5.0881,-5.1204,-5.1239,-5.082,-5.0816,-5.0812,0,-4.9866,-5.0052,-5.0217,-5.0263,-5.0358,-5.0436,-5.0478,-5.055,-5.0618,-5.0709,-5.0753,-5.0858,-5.0916,-5.0997,-5.1006,-5.0928,-5.1198,-5.1093,-5.1212,-5.1212,-5.1271,-5.1268,-5.1609,-5.1307,-5.1307,-5.1306,-5.1306,0,-5.0133,-5.0279,-5.0306,-5.0408,-5.0571,-5.0572,-5.0732,-5.0768,-5.0832,-5.0939,-5.0908,-5.1008,-5.1013,-5.1116,-5.1123,-5.1281,-5.1306,-5.132,-5.132,-5.1324,-5.1322,-5.1362,-5.1347,-5.1315,-5.1313,-5.1312,-5.131,0,-5.0378,-5.0402,-5.058,-5.0655,-5.0677,-5.0794,-5.0857,-5.0954,-5.0977,-5.1113,-5.1145,-5.118,-5.13,-5.1316,-5.1455,-5.146,-5.1649,-5.1632,-5.1624,-5.1622,-5.174,-5.1729,-5.212,-5.2172,-5.1836,-5.1839,-5.1841,0,-5.0547,-5.0659,-5.0747,-5.0818,-5.0865,-5.0979,-5.1049,-5.1054,-5.1128,-5.1225,-5.131,-5.1426,-5.152,-5.1711,-5.1749,-5.1854,-5.184,-5.197,-5.1856,-5.1856,-5.1843,-5.1837,-5.1848,-5.1992,-5.1996,-5.1999,-5.2002,0,-5.0846,-5.0852,-5.0955,-5.1063,-5.1148,-5.1233,-5.1312,-5.1371,-5.1386,-5.1471,-5.1594,-5.1666,-5.1809,-5.1924,-5.2029,-5.207,-5.2039,-5.2037,-5.207,-5.2076,-5.2067,-5.2074,-5.1685,-5.2028,-5.2026,-5.2024,-5.2022,-5.2021,-5.1059,-5.1156,-5.1234,-5.135,-5.1411,-5.1486,-5.1581,-5.1616,-5.1719,-5.1837,-5.1833,-5.1968,-5.2041,-5.2179,-5.2228,-5.2332,-5.229,-5.2338,-5.235,-5.2362,-5.2374,-5.2049,-5.2351,-5.235,-5.235,-5.2349,-5.2348,0,-5.1356,-5.1404,-5.1511,-5.1624,-5.1715,-5.1679,-5.1765,-5.1843,-5.1963,-5.2035,-5.2128,-5.2269,-5.2381,-5.2427,-5.2536,-5.261,-5.2599,-5.2639,-5.2634,-5.2644,-5.2406,-5.2367,-5.2647,-5.2647,-5.2647,-5.2647,-5.2647,-5.2646,-5.1522,-5.1686,-5.1701,-5.1894,-5.194,-5.2074,-5.2126,-5.2195,-5.2253,-5.2412,-5.2506,-5.2535,-5.2597,-5.271,-5.2811,-5.2821,-5.2863,-5.291,-5.2914,-5.2691,-5.2661,-5.2632,-5.2595,-5.2919,-5.2919,-5.3144,-5.3146,-5.3147]}]]